{"data":{"norad_id":60906,"intl_designator":"2024-154D","name":"STARLINK-11264 [DTC]","alt_names":[],"object_type":"PAYLOAD","status":"ACTIVE","operator":null,"country":"US","launch_date":"2024-08-31","launch_site_code":"AFETR","launch_vehicle":null,"mission":null,"orbit_class":"UNKNOWN","rcs_meters":null,"size_class":null,"mass_kg":null,"dimensions":null,"purposes":["comms"],"wikipedia_slug":null,"has_3d_model":false,"image_url":null,"decayed_at":null,"tle_current":{"epoch":"2026-09-21T16:20:39.919776Z","epoch_age_seconds":86192,"freshness":"FRESH","line1":"1 60906U 24154D   26264.68101759 -.00001719  00000+0 -93409-5 0  9993","line2":"2 60906  53.1581 245.3489 0000727  91.3462 268.7639 15.69712271119296","mean_motion":15.69712271,"eccentricity":7.27e-5,"inclination_deg":53.1581,"raan_deg":245.3489,"arg_perigee_deg":91.3462,"mean_anomaly_deg":268.7639,"bstar":-9.3409e-6,"rev_number":11929,"period_min":91.736557495511,"perigee_km":359.23040947271,"apogee_km":360.21009391711,"semimajor_km":6737.8572516949,"source":"CELESTRAK","updated_at":"2026-09-22T09:00:49.282900Z"}}}